Regional Weather Roundup
Issued by NWS Green Bay, WI

Home | Current Version | Previous Version | Text Only | Print | Product List | Glossary On
Versions: 1 2 3 4 5 6 7 8 9 10 11 12 13 14 15 16 17 18 19 20 21 22 23 24 25 26 27 28 29 30 31 32 33 34 35 36 37 38 39 40 41 42 43 44 45 46 47 48 49 50
000
ASUS43 KGRB 250811
RWRGRB

NORTH-CENTRAL AND NORTHEAST WISCONSIN REGIONAL WEATHER ROUNDUP
NATIONAL WEATHER SERVICE GREEN BAY WI
300 AM CDT THU AUG 25 2016

WIZ005-009-010>012-018-019-250900-
NORTH CENTRAL WISCONSIN

CITY           SKY/WX    TMP DP  RH WIND       PRES   REMARKS
IRONWOOD       PTCLDY    60  56  86 W7        29.95R
MANITOWISH WTR MOCLDY    58  58 100 W3        29.96R
ARBOR VITAE    MOCLDY    60  57  91 CALM      29.97R
EAGLE RIVER    PTCLDY    59  58  96 W5        29.95R
LAND O LAKES   CLOUDY    57  56  99 CALM      29.96R FOG
RHINELANDER    PTCLDY    58  58 100 W7        29.97R
PHILLIPS       CLEAR     58  57  97 CALM      29.98R
ANTIGO         MOCLDY    60  58  95 CALM      29.97F
TOMAHAWK       PTCLDY    56  54  94 W3        29.98R
MERRILL        PTCLDY    60  59  96 W5        29.98S
$$

WIZ013-073-250900-
NORTHEAST WISCONSIN

CITY           SKY/WX    TMP DP  RH WIND       PRES   REMARKS
IRON MOUNTAIN  MOCLDY    65  58  78 W7        29.90S
MARINETTE      MOCLDY   N/A N/A N/A W5        29.92R
OCONTO         PTCLDY    64  63  96 W5        29.92R
$$

WIZ017-030-035>037-045-250900-
CENTRAL WISCONSIN

CITY           SKY/WX    TMP DP  RH WIND       PRES   REMARKS
MEDFORD        CLOUDY    59  59 100 W3        30.00R
WAUSAU         CLOUDY    63  58  83 NW10      29.96S
MOSINEE        CLOUDY    61  59  94 W3        29.99S
MARSHFIELD     CLOUDY    62  57  83 W6        29.99S
WISC RAPIDS    PTCLDY    64  61  90 N6        29.99S
STEVENS POINT  CLOUDY    63  59  87 W5        29.99R
WAUPACA        CLOUDY    68  63  83 W3        29.96S
SHAWANO        CLOUDY    66  62  86 W5        29.95S
CLINTONVILLE   CLEAR     64  63  94 W7        29.95S
WAUTOMA        PTCLDY    65  63  93 W3        29.97F
$$

WIZ038-039-048-051-250900-
FOX VALLEY

CITY           SKY/WX    TMP DP  RH WIND       PRES   REMARKS
NWS GREEN BAY  CLEAR     66  66 100 NW8       29.93S
APPLETON       PTCLDY    63  63 100 W9        29.94S
OSHKOSH        PTCLDY    68  65  90 W5        29.95S
FOND DU LAC    CLOUDY    68  66  93 W6        29.95F
$$

WIZ022-050-052-250900-
EAST CENTRAL WISCONSIN

CITY           SKY/WX    TMP DP  RH WIND       PRES   REMARKS
EPHRAIM        FAIR      67  66  95 W6        29.91R
WASHINGTON ISL NOT AVBL
STURGEON BAY   CLEAR     67  65  93 W6        29.93R
MANITOWOC      PTCLDY    67  66  97 CALM      29.93F
SHEBOYGAN      MOCLDY    68  66  93 NW5       29.94S
$$

LMZ563-521-522-541>543-250900-
LAKESHORE

STATION/POSITION TIME  TEMP    WIND        PRES    VSBY  WAVE
                       AIR SEA DIR/SP/G                  HT/PER
                 (UTC) (F)     (DEG/KT/KT) (MB)    (MI)  (FT/S)
SHEBOYGAN LKSHOR 0800   72     290/  7/  9 1012.9F
KEWAUNEE LKSHORE 0700   69     290/  3/  4 1012.8S
NORTHPORT PIER   0700   71     270/  6/ 11 1011.9S
N MID LAKE BUOY  0750   70 69  240/ 10/ 12 1011.2R         3/ 6
S GREEN BAY BUOY 0700   71 73  260/ 10/ 12 1012.5
SISTER BAY LKSHO 0707   71     290/ 12/ 14   N/A
CHAMBERS ISLAND  0700   69     220/  4/  9 1012.2S
MENOMINEE LKSHOR 0700   70     260/  6/  9 1011.6F
$$




USA.gov is the U.S. government's official web portal to all federal, state and local government web resources and services.